Vertical_Velocity
-2 -2 -2 -2 -2 -2 -2 -3 -3 -3 -3 -4 -4 -4 -5 -4 -3 -2 -0 0 -1 -2 -3 -3 -1 -1 -1 0 1 1 -0 -2 -2 -1 0 2 5 8 9 11 13 15 15 14 10 7 4 1 1 1 -0 -1 -2 -2 -3 -3 -2 -1 -0 2 2 2 3 3 2 2 2 3 4
-1 -1 -2 -2 -2 -2 -2 -3 -2 -2 -2 -2 -3 -4 -4 -3 -2 -1 -1 -0 -0 -1 -2 -3 -1 -1 -0 0 1 1 -0 -3 -3 -3 -2 -1 4 8 11 14 15 15 15 12 7 3 0 -1 -1 -1 -2 -3 -4 -4 -3 -3 -1 0 1 3 3 2 2 3 2 2 3 3 4
-1 -1 -1 -1 -1 -2 -2 -2 -3 -2 -2 -2 -3 -3 -2 -1 -0 -0 -0 1 1 -0 -2 -3 -3 -2 -1 -1 1 1 1 -0 -1 -1 -1 -1 3 8 12 17 14 11 9 5 2 -1 -3 -4 -4 -5 -5 -6 -5 -3 -2 -2 1 3 3 3 4 4 3 3 3 3 2 2 3
-2 -2 -2 -1 -1 -2 -3 -3 -3 -3 -3 -3 -3 -2 -1 0 0 0 0 0 -1 -1 -2 -2 -3 -2 -1 1 0 1 1 3 2 0 -0 -0 4 8 13 19 12 7 3 1 -2 -3 -4 -4 -4 -5 -5 -4 -2 -1 0 1 3 4 4 4 4 4 3 2 2 2 2 2 3
-1 -2 -2 -2 -2 -3 -3 -3 -2 -2 -2 -3 -3 -2 -1 1 1 0 -1 -2 -2 -1 -0 -1 0 1 2 3 1 -0 0 2 2 1 -0 -1 3 7 11 18 11 5 2 0 -1 -2 -3 -2 -1 -1 -0 0 1 1 1 2 2 2 2 2 3 3 3 2 2 2 3 3 4
-1 -1 -1 -2 -2 -2 -2 -2 -2 -2 -3 -3 -2 -1 1 1 1 0 -0 -1 -1 -1 -1 -1 1 2 1 -0 -1 -1 -1 0 1 1 1 1 2 4 7 16 10 4 0 -0 -1 -2 -3 -3 -2 -1 -0 0 -0 0 1 1 0 1 1 2 3 3 3 3 3 3 4 4 5
-2 -2 -2 -2 -2 -2 -2 -1 -2 -3 -3 -3 -1 0 1 1 -0 -0 0 0 -1 -2 -2 -1 0 -0 -2 -4 -3 -2 -1 -1 -1 0 1 1 1 2 6 14 10 5 2 0 -1 -2 -3 -4 -3 -2 -2 -1 -0 0 1 1 1 2 2 3 4 4 4 4 4 3 4 4 4
-2 -2 -2 -3 -2 -2 -2 -2 -2 -2 -2 -2 -1 -0 -1 -1 -1 -1 -1 -2 -2 -1 -0 -1 -1 -0 -1 -2 -1 -1 -1 -2 -2 -2 -1 -0 0 1 3 10 8 6 5 3 1 -1 -2 -3 -3 -2 -1 -1 0 1 2 3 3 3 3 4 4 4 4 3 3 3 2 3 3
-1 -1 -2 -2 -2 -2 -2 -2 -2 -2 -2 -1 -0 -1 -1 -2 -1 -1 -2 -3 -0 1 1 -2 -1 -1 -1 0 0 -0 -1 -2 -2 -2 -1 -1 -0 -0 1 5 4 4 5 6 4 2 1 -2 -2 -1 0 0 1 2 2 2 2 2 3 3 2 2 2 2 2 2 3 3 3
-1 -1 -1 -2 -1 -1 -2 -2 -2 -2 -2 -1 -1 -1 -1 -1 -1 -1 -2 -1 1 1 0 -2 -2 -2 -2 -0 -1 -1 -1 -1 -1 -1 -1 -0 1 1 2 4 4 3 3 5 5 4 3 1 0 1 1 -0 0 1 0 -0 -0 0 1 1 0 1 2 3 4 4 4 4 3
-1 -2 -2 -2 -2 -2 -2 -2 -1 -1 -2 -2 -2 -1 -1 -1 -1 -1 -1 0 1 1 0 -1 -3 -3 -2 -1 -1 -0 0 0 -0 -1 -1 -0 1 2 3 4 4 3 3 4 4 4 3 3 3 2 2 2 2 1 0 0 1 1 1 1 1 1 2 4 5 5 5 5 4
-1 -2 -2 -2 -2 -2 -2 -2 -2 -2 -2 -2 -2 -2 -2 -2 -1 -1 -1 0 1 0 -0 -1 -2 -3 -2 -2 -1 -1 -0 0 -0 -1 -1 -0 1 2 3 2 2 3 3 3 3 2 3 3 3 3 3 3 2 2 2 2 2 3 3 3 2 2 2 4 5 5 5 5 4
-2 -2 -2 -2 -1 -1 -2 -2 -2 -2 -2 -2 -2 -2 -2 -2 -2 -1 -1 -0 -0 -0 -1 -1 -2 -2 -2 -2 -1 -1 -0 -0 -0 -0 0 1 1 2 2 1 1 2 2 2 2 2 1 1 1 1 1 1 1 1 2 2 2 3 3 3 2 3 3 4 4 4 4 4 5
-2 -2 -2 -2 -2 -1 -2 -2 -2 -2 -2 -2 -2 -2 -2 -2 -2 -1 -1 -1 -0 -0 -1 -1 -1 -2 -2 -1 -1 -0 0 0 0 0 1 2 2 2 1 2 1 1 2 1 2 1 0 -1 -1 -1 -1 -1 -0 0 1 1 1 2 3 3 4 4 4 3 3 2 2 2 4
-1 -1 -2 -2 -1 -1 -1 -2 -2 -2 -2 -2 -2 -2 -2 -3 -2 -1 -1 -1 -1 0 0 -0 -1 -2 -1 -0 0 0 1 1 0 0 0 0 0 0 -0 1 0 0 0 1 2 1 0 -1 -2 -2 -2 -1 -1 -0 -0 -1 -0 1 2 3 3 4 4 3 3 2 1 1 2
-1 -1 -1 -1 -1 -1 -1 -2 -2 -2 -2 -2 -1 -2 -2 -3 -2 -1 -1 -2 -1 -0 1 1 -1 -2 -2 -1 -0 -0 -0 0 -0 -1 -1 -1 -2 -2 -2 -1 -1 -1 -1 1 2 2 1 -0 -1 -1 -1 -1 -1 -1 -1 -1 -1 -0 1 1 2 3 3 3 3 2 2 2 2
-1 -1 -1 -1 -1 -1 -1 -1 -2 -2 -2 -1 -1 -1 -2 -2 -2 -1 -1 -1 -1 -1 -0 1 0 -1 -2 -2 -1 -2 -2 -1 -1 -0 -0 -0 -1 -2 -2 -2 -1 -1 -0 2 2 2 1 0 -0 -0 -0 -1 -1 -1 -1 -1 -1 -0 0 1 2 3 3 3 3 3 2 3 3
-1 -1 -2 -1 -1 -1 -1 -1 -1 -1 -1 -1 -1 -1 -1 -1 -1 -1 -1 0 -0 -1 -1 -0 0 -0 -1 -1 -1 -1 -2 -2 -1 -0 1 2 1 0 -0 0 0 0 1 3 4 3 2 1 0 0 0 0 -0 -1 -1 -1 -1 -1 -0 0 1 2 2 3 3 2 2 2 3
-1 -2 -2 -1 -1 -1 -1 -1 -2 -2 -2 -2 -1 -1 -1 -0 -1 -1 -1 -1 -1 -1 -1 -1 -1 -1 -1 -1 -1 -1 -1 -1 -1 -0 1 2 2 2 2 2 1 1 1 2 4 4 3 1 1 0 0 1 1 0 -0 -1 -1 -1 -1 -1 -1 -1 -1 0 1 2 2 3 3
-2 -2 -2 -2 -1 -1 -1 -2 -2 -2 -2 -1 -1 -1 -1 -1 -1 -1 -2 -2 -1 -1 -1 -1 -1 -1 -2 -3 -2 -2 -1 -0 -0 -0 -0 0 1 2 3 4 3 2 1 1 4 5 4 1 -0 -0 0 0 0 -0 -0 -0 -1 -1 -1 -2 -2 -3 -3 -3 -2 -0 1 2 2
-2 -2 -2 -2 -1 -1 -1 -2 -1 -1 -1 -1 -1 -1 -1 -1 -1 -1 -1 -2 -2 -1 -1 -0 -1 -1 -3 -4 -5 -4 -2 0 2 1 1 -1 -1 0 2 4 6 5 4 1 4 5 5 2 -0 -1 -1 -1 -1 -1 -1 -1 -1 -1 -1 -1 -1 -1 -2 -3 -3 -3 -2 -1 0
-2 -2 -2 -1 -1 -1 -1 -1 -1 -1 -1 -1 -2 -2 -2 -2 -1 -1 -1 -1 -1 -1 -1 -1 -1 -1 -2 -3 -5 -5 -4 -1 2 3 3 1 -0 -1 -0 1 5 8 8 5 6 6 4 3 0 -1 -2 -2 -2 -2 -3 -3 -2 -2 -1 -1 -0 -0 -1 -2 -3 -3 -3 -2 -2
-2 -2 -2 -2 -1 -1 -1 -1 -1 -1 -1 -1 -1 -2 -2 -2 -1 -1 -1 -1 -1 -2 -2 -1 -1 -0 -0 -1 -3 -4 -5 -5 -2 1 3 3 1 -1 -2 -3 0 5 12 19 18 10 2 1 -1 -2 -3 -3 -3 -3 -3 -3 -3 -3 -3 -2 -1 -1 -0 -0 -2 -3 -3 -4 -3
-2 -2 -2 -2 -1 -1 -1 -1 -0 -0 -1 -1 -1 -2 -2 -2 -2 -1 -1 -1 -2 -2 -2 -2 -1 -1 -0 -0 -1 -3 -4 -6 -6 -4 -1 3 2 0 -2 -3 -3 -0 12 39 40 22 2 -3 -1 -2 -3 -3 -3 -3 -3 -3 -4 -4 -4 -4 -4 -3 -1 0 -0 -1 -3 -4 -4
-2 -2 -1 -1 -1 -1 -1 -0 -0 -1 -1 -1 -1 -2 -2 -2 -2 -2 -2 -2 -3 -3 -2 -2 -2 -2 -2 -2 -1 -2 -3 -4 -6 -7 -5 -2 -0 0 -0 -2 -3 -3 8 41 50 33 9 -3 -1 -1 -2 -3 -3 -3 -2 -3 -3 -4 -4 -4 -5 -5 -4 -3 -2 -1 -2 -2 -3
-2 -1 -1 -1 -1 -1 -1 -0 -0 -1 -1 -1 -1 -1 -2 -2 -2 -2 -2 -2 -3 -2 -2 -3 -3 -4 -4 -3 -3 -2 -3 -3 -4 -5 -6 -6 -4 -2 -1 -1 -1 -2 1 14 49 43 19 0 -1 -0 -0 -2 -3 -4 -4 -4 -3 -3 -3 -4 -5 -5 -6 -6 -5 -4 -2 -1 -1
-1 -1 -1 -1 -1 -1 -1 -1 -1 -1 -1 -1 -1 -1 -2 -2 -1 -1 -1 -2 -2 -3 -3 -3 -4 -4 -5 -4 -4 -3 -3 -4 -4 -4 -4 -5 -4 -4 -3 -2 -1 -1 -3 -5 44 50 31 6 1 0 0 -1 -3 -4 -4 -4 -4 -4 -4 -5 -5 -5 -5 -6 -6 -5 -4 -2 -0
-1 -1 -1 -1 -1 -1 -1 -1 -1 -1 -1 -1 -2 -2 -2 -1 -1 -1 -1 -1 -2 -3 -4 -5 -5 -5 -5 -5 -4 -3 -3 -3 -4 -4 -4 -3 -3 -3 -2 -2 -2 -2 -2 -5 24 44 45 15 4 1 1 0 -2 -3 -4 -4 -5 -5 -5 -5 -5 -5 -5 -4 -5 -5 -4 -3 -1
-1 -1 -1 -1 -1 -1 -1 -1 -1 -1 -2 -2 -2 -2 -1 -1 -1 -1 -1 -1 -2 -3 -4 -5 -5 -4 -4 -4 -4 -4 -3 -2 -3 -3 -4 -3 -3 -3 -2 -2 -2 -2 -2 -3 3 30 47 24 6 2 2 2 -1 -3 -4 -4 -4 -5 -5 -5 -5 -4 -4 -3 -3 -3 -3 -3 -1
-1 -2 -2 -2 -1 -1 -1 -1 -1 -1 -2 -2 -2 -2 -1 -1 -1 -1 -1 -2 -2 -3 -3 -4 -3 -2 -2 -2 -3 -4 -3 -2 -2 -3 -4 -4 -4 -4 -3 -2 -2 -2 -2 -3 -3 18 36 28 8 2 2 3 1 -1 -3 -3 -4 -4 -5 -4 -4 -3 -3 -3 -2 -2 -2 -2 -1
-1 -1 -2 -1 -1 -1 -1 -1 -1 -1 -1 -2 -2 -2 -1 -1 -1 -1 -1 -2 -2 -2 -2 -2 -2 -1 -1 -1 -2 -3 -3 -3 -3 -3 -4 -5 -5 -5 -4 -3 -2 -1 -1 -3 -3 9 23 29 12 3 1 3 2 0 -2 -4 -4 -4 -3 -2 -2 -3 -3 -3 -2 -2 -2 -2 -2
-1 -1 -1 -2 -1 -1 -1 -1 -1 -1 -1 -1 -2 -2 -2 -1 -1 -1 -1 -1 -1 -1 -2 -2 -2 -2 -2 -3 -3 -3 -3 -3 -3 -3 -3 -3 -4 -5 -5 -4 -3 -2 -2 -2 -3 2 15 35 23 9 0 2 3 2 -1 -3 -4 -4 -3 -2 -1 -1 -2 -2 -2 -2 -2 -1 -1
-1 -1 -1 -2 -2 -1 -1 -1 -1 -1 -1 -1 -1 -2 -2 -2 -1 -1 -0 0 -0 -1 -2 -2 -2 -2 -2 -3 -3 -4 -4 -4 -3 -3 -3 -3 -3 -4 -4 -5 -4 -3 -2 -2 -2 -2 8 35 33 17 1 -0 3 3 1 -2 -4 -4 -3 -2 -1 0 0 -0 -1 -2 -2 -2 -2
-1 -1 -1 -1 -1 -1 -1 -1 -1 -1 -1 -1 -1 -1 -1 -2 -2 -1 -1 -0 -1 -1 -1 -1 -1 -1 -1 -1 -1 -2 -3 -4 -3 -3 -3 -4 -4 -4 -4 -4 -4 -3 -2 -2 -1 -2 4 26 36 21 2 -2 0 2 2 -2 -4 -5 -4 -2 -1 0 1 1 0 -1 -1 -1 -3
-2 -2 -1 -1 -1 -1 -1 -1 -1 -0 -0 -1 -1 -1 -1 -1 -2 -2 -2 -1 -0 -0 -0 0 0 0 0 0 1 -0 -1 -3 -3 -4 -4 -5 -5 -5 -5 -4 -4 -4 -3 -2 -1 -2 2 16 33 24 7 -2 -1 1 2 -2 -5 -6 -4 -3 -2 -1 -1 0 -1 -1 -2 -2 -5
-2 -2 -2 -1 -1 -1 -1 -1 -1 -1 -1 -1 -1 -2 -1 -1 -1 -1 -1 -1 -1 -0 0 0 0 0 0 0 0 0 -0 -2 -3 -4 -4 -5 -6 -6 -6 -6 -6 -5 -5 -3 -3 -3 -1 6 27 29 19 2 0 1 1 -3 -6 -6 -5 -3 -3 -2 -2 -1 -1 -2 -2 -3 -6
-2 -2 -2 -2 -1 -1 -1 -1 -2 -1 -1 -1 -1 -2 -2 -1 -1 -1 -1 -2 -1 -1 -0 0 0 0 -0 -0 -0 0 1 0 -2 -3 -4 -4 -5 -6 -7 -8 -7 -7 -6 -5 -4 -4 -3 -2 17 37 41 10 5 2 -1 -6 -7 -7 -5 -4 -3 -2 -1 -1 -2 -2 -3 -4 -6
-2 -2 -2 -2 -2 -1 -1 -1 -1 -1 -2 -2 -1 -1 -1 -2 -1 -1 -1 -1 -2 -2 -1 -1 -0 -0 -0 -1 -0 0 1 2 1 -1 -3 -3 -4 -5 -7 -8 -8 -7 -7 -6 -5 -4 -4 -5 6 36 51 19 10 3 -3 -9 -9 -7 -6 -5 -4 -2 -1 -1 -3 -3 -4 -4 -4
-1 -1 -1 -2 -2 -1 -1 0 -0 -1 -2 -2 -2 -2 -2 -2 -2 -1 -1 -1 -1 -1 -1 -1 -0 -0 -0 -1 -1 0 1 3 2 0 -1 -3 -3 -3 -4 -5 -6 -6 -6 -6 -6 -5 -5 -6 -1 28 48 24 12 1 -7 -12 -10 -8 -6 -5 -5 -4 -2 -1 -2 -4 -5 -4 -4
-2 -2 -1 -1 -1 -1 -1 -0 0 -0 -1 -2 -3 -2 -2 -2 -1 -1 -1 -0 -0 -1 -1 -0 -0 0 0 -0 -0 0 1 2 2 1 -0 -1 -1 -1 -2 -3 -4 -5 -6 -6 -6 -7 -7 -9 -8 17 39 26 9 -3 -10 -13 -11 -8 -6 -5 -5 -5 -4 -2 -2 -3 -5 -6 -6
-2 -2 -2 -1 -1 -1 -1 -1 -0 0 -0 -1 -2 -2 -2 -2 -1 -1 -0 0 1 0 -0 -0 0 0 0 1 1 1 1 2 2 1 0 -0 -0 -0 -0 -2 -4 -5 -6 -6 -6 -7 -9 -12 -11 7 25 29 7 -6 -12 -13 -12 -10 -6 -4 -3 -3 -3 -4 -4 -5 -5 -6 -7
Height
1549 1547 1546 1544 1542 1541 1539 1538 1537 1536 1535 1533 1532 1530 1528 1526 1525 1523 1521 1519 1517 1515 1513 1511 1508 1506 1503 1501 1499 1496 1493 1490 1487 1484 1481 1478 1475 1471 1468 1465 1462 1459 1456 1454 1453 1452 1451 1451 1451 1451 1450 1450 1449 1448 1447 1447 1446 1445 1444 1443 1442 1441 1441 1440 1439 1439 1438 1438 1437
1549 1547 1546 1544 1542 1541 1539 1538 1537 1536 1535 1533 1532 1530 1528 1526 1525 1523 1521 1519 1517 1516 1513 1511 1508 1506 1503 1501 1499 1496 1492 1489 1486 1484 1481 1477 1474 1471 1467 1465 1462 1459 1456 1453 1451 1450 1450 1450 1449 1449 1449 1448 1448 1447 1446 1446 1445 1444 1443 1442 1441 1441 1440 1439 1438 1438 1437 1437 1436
1549 1547 1545 1544 1542 1541 1539 1538 1537 1536 1535 1534 1532 1531 1529 1527 1525 1523 1521 1519 1517 1516 1513 1511 1508 1506 1503 1501 1498 1495 1492 1489 1486 1484 1481 1477 1474 1471 1468 1465 1462 1458 1455 1452 1450 1449 1449 1448 1448 1448 1448 1447 1446 1446 1445 1445 1444 1443 1442 1441 1441 1440 1439 1439 1438 1437 1437 1436 1436
1549 1547 1545 1544 1542 1541 1540 1538 1537 1536 1535 1534 1532 1531 1529 1527 1525 1523 1521 1519 1517 1515 1513 1511 1508 1506 1503 1501 1498 1495 1492 1490 1487 1484 1481 1478 1474 1471 1469 1466 1462 1458 1454 1451 1450 1449 1448 1448 1447 1447 1447 1446 1446 1445 1444 1444 1443 1442 1441 1441 1440 1440 1439 1438 1437 1437 1436 1435 1435
1548 1547 1545 1544 1542 1541 1540 1539 1538 1536 1535 1534 1532 1530 1529 1527 1525 1523 1521 1519 1517 1515 1513 1511 1508 1506 1504 1501 1498 1495 1492 1490 1487 1485 1481 1478 1476 1473 1470 1468 1464 1459 1455 1453 1451 1449 1448 1448 1447 1447 1446 1446 1445 1445 1444 1443 1442 1442 1441 1441 1440 1439 1438 1437 1437 1436 1436 1435 1434
1548 1546 1545 1544 1542 1541 1540 1539 1538 1536 1535 1533 1532 1530 1529 1527 1525 1523 1521 1519 1517 1515 1513 1511 1509 1507 1504 1501 1498 1495 1492 1490 1487 1485 1482 1480 1477 1474 1472 1470 1466 1461 1458 1455 1453 1451 1450 1448 1448 1447 1446 1446 1445 1445 1444 1443 1442 1442 1441 1440 1440 1439 1438 1437 1436 1436 1435 1434 1434
1548 1546 1545 1543 1542 1541 1540 1539 1537 1536 1535 1533 1531 1530 1528 1527 1525 1523 1521 1519 1517 1515 1513 1511 1509 1507 1504 1501 1498 1495 1493 1490 1487 1485 1483 1481 1478 1476 1474 1472 1469 1465 1461 1458 1455 1453 1451 1450 1449 1448 1447 1447 1446 1445 1445 1444 1443 1442 1441 1441 1440 1439 1438 1437 1436 1436 1435 1434 1434
1548 1546 1545 1543 1542 1541 1540 1539 1537 1536 1534 1533 1531 1530 1528 1526 1525 1523 1521 1519 1517 1515 1513 1511 1509 1507 1504 1501 1499 1496 1493 1491 1488 1486 1483 1481 1479 1477 1475 1474 1471 1468 1464 1461 1458 1456 1454 1452 1451 1450 1449 1448 1447 1446 1445 1444 1443 1442 1441 1441 1440 1439 1438 1438 1437 1436 1436 1435 1434
1547 1546 1544 1543 1542 1541 1540 1538 1537 1536 1534 1533 1531 1530 1528 1526 1525 1523 1521 1519 1517 1515 1513 1511 1509 1507 1505 1502 1499 1496 1494 1491 1489 1486 1484 1482 1480 1478 1476 1475 1473 1470 1467 1464 1461 1459 1457 1455 1453 1452 1451 1450 1449 1447 1446 1445 1444 1443 1442 1441 1441 1440 1439 1438 1437 1437 1436 1435 1434
1547 1545 1544 1543 1542 1541 1539 1538 1537 1536 1534 1533 1531 1530 1528 1526 1525 1523 1521 1519 1518 1516 1514 1511 1509 1507 1505 1502 1500 1497 1495 1492 1490 1487 1485 1483 1481 1479 1477 1476 1474 1471 1469 1467 1464 1462 1460 1458 1456 1454 1453 1451 1450 1449 1448 1446 1446 1445 1444 1443 1441 1441 1440 1439 1438 1437 1436 1435 1435
1546 1545 1544 1542 1541 1540 1539 1538 1536 1535 1534 1532 1531 1529 1528 1526 1525 1523 1521 1520 1518 1516 1514 1512 1510 1507 1505 1503 1501 1498 1496 1493 1491 1488 1486 1483 1481 1480 1478 1477 1475 1472 1471 1469 1466 1464 1462 1461 1459 1457 1455 1454 1452 1451 1449 1448 1447 1446 1445 1444 1443 1441 1441 1439 1438 1437 1436 1435 1434
1546 1545 1543 1542 1541 1540 1539 1537 1536 1535 1533 1532 1531 1529 1528 1526 1525 1523 1521 1520 1518 1516 1514 1512 1510 1508 1506 1504 1501 1499 1496 1494 1491 1489 1486 1484 1482 1480 1478 1477 1475 1473 1472 1470 1468 1466 1464 1463 1461 1459 1457 1456 1454 1452 1451 1450 1448 1447 1446 1445 1443 1442 1441 1440 1439 1437 1436 1436 1435
1546 1544 1543 1542 1541 1540 1538 1537 1536 1535 1533 1532 1530 1529 1527 1526 1524 1523 1521 1520 1518 1516 1514 1512 1511 1508 1506 1504 1502 1500 1497 1495 1492 1490 1487 1485 1483 1481 1479 1477 1476 1474 1473 1471 1469 1467 1466 1464 1462 1461 1459 1457 1456 1454 1453 1451 1450 1448 1446 1445 1444 1443 1442 1441 1439 1438 1437 1436 1435
1546 1544 1543 1542 1541 1539 1538 1537 1536 1534 1533 1531 1530 1529 1527 1526 1524 1523 1521 1520 1518 1516 1514 1512 1511 1509 1507 1505 1503 1501 1498 1496 1493 1491 1488 1486 1484 1481 1479 1478 1476 1475 1474 1472 1471 1469 1467 1465 1464 1462 1460 1459 1457 1456 1454 1452 1451 1449 1447 1446 1445 1443 1442 1441 1440 1438 1437 1436 1435
1545 1544 1543 1541 1540 1539 1538 1536 1535 1534 1533 1531 1530 1529 1527 1526 1524 1522 1521 1519 1518 1516 1514 1512 1511 1509 1507 1506 1504 1501 1499 1496 1494 1492 1489 1487 1485 1482 1480 1478 1477 1475 1474 1473 1471 1470 1468 1466 1464 1463 1461 1460 1458 1457 1455 1454 1452 1450 1449 1447 1446 1444 1443 1441 1440 1439 1438 1436 1436
1545 1544 1542 1541 1540 1539 1537 1536 1535 1534 1532 1531 1530 1528 1527 1526 1524 1522 1521 1519 1518 1516 1515 1513 1511 1509 1507 1506 1504 1501 1499 1497 1495 1492 1490 1488 1485 1483 1481 1479 1477 1476 1474 1473 1472 1471 1469 1467 1465 1463 1462 1460 1459 1457 1456 1454 1453 1451 1450 1448 1446 1445 1444 1442 1441 1440 1438 1437 1436
1545 1543 1542 1541 1540 1538 1537 1536 1535 1533 1532 1531 1530 1528 1527 1526 1524 1522 1521 1519 1518 1516 1515 1513 1511 1509 1508 1506 1504 1501 1499 1497 1495 1493 1491 1489 1486 1484 1482 1480 1478 1476 1475 1474 1473 1471 1469 1467 1466 1464 1462 1461 1459 1458 1456 1455 1454 1452 1451 1449 1447 1446 1445 1443 1441 1440 1439 1438 1436
1544 1543 1541 1540 1539 1538 1537 1536 1534 1533 1532 1531 1529 1528 1527 1526 1524 1522 1521 1519 1518 1516 1514 1513 1511 1510 1508 1506 1504 1502 1500 1498 1496 1494 1491 1490 1487 1485 1483 1481 1479 1477 1476 1475 1473 1471 1470 1468 1466 1464 1463 1461 1460 1458 1457 1455 1454 1452 1451 1450 1448 1447 1445 1444 1442 1441 1440 1438 1437
1544 1542 1541 1540 1539 1537 1536 1535 1534 1533 1531 1530 1529 1528 1526 1525 1524 1522 1521 1519 1517 1516 1514 1513 1511 1510 1508 1506 1504 1502 1500 1498 1496 1494 1492 1490 1488 1486 1484 1482 1480 1478 1476 1475 1474 1472 1471 1468 1466 1465 1463 1461 1460 1458 1457 1456 1454 1453 1451 1450 1448 1447 1446 1444 1443 1442 1441 1439 1437
1544 1542 1541 1539 1538 1537 1536 1535 1533 1532 1531 1530 1529 1527 1526 1525 1524 1522 1521 1519 1517 1516 1514 1512 1511 1509 1508 1506 1504 1502 1500 1498 1496 1494 1492 1490 1488 1486 1484 1482 1481 1479 1477 1475 1474 1473 1471 1469 1467 1465 1463 1461 1460 1458 1456 1455 1454 1452 1451 1450 1448 1447 1446 1444 1443 1442 1441 1439 1438
1543 1542 1541 1539 1538 1536 1535 1534 1533 1532 1531 1530 1528 1527 1526 1525 1523 1522 1520 1519 1517 1516 1514 1512 1511 1509 1507 1506 1504 1502 1500 1498 1496 1494 1492 1490 1488 1486 1485 1483 1481 1479 1477 1476 1475 1473 1472 1470 1467 1466 1464 1462 1460 1458 1456 1455 1454 1452 1451 1450 1448 1447 1445 1444 1443 1441 1440 1439 1438
1543 1541 1540 1539 1537 1536 1535 1534 1532 1531 1530 1529 1528 1527 1525 1524 1523 1521 1520 1518 1517 1515 1514 1512 1510 1509 1507 1505 1504 1502 1500 1498 1496 1495 1492 1491 1489 1487 1485 1483 1481 1479 1477 1475 1474 1473 1472 1470 1468 1466 1464 1462 1460 1458 1457 1455 1454 1452 1451 1449 1448 1446 1445 1444 1442 1441 1440 1439 1437
1543 1541 1540 1539 1537 1536 1535 1533 1532 1531 1530 1529 1527 1526 1525 1523 1522 1521 1520 1518 1516 1515 1513 1512 1510 1508 1507 1505 1503 1502 1500 1498 1496 1495 1493 1491 1489 1487 1485 1483 1481 1479 1477 1476 1475 1473 1472 1470 1468 1466 1464 1462 1461 1459 1457 1455 1454 1452 1451 1449 1448 1446 1445 1443 1442 1441 1439 1438 1436
1543 1541 1540 1538 1537 1536 1534 1533 1532 1531 1529 1528 1527 1525 1524 1523 1521 1520 1519 1518 1516 1515 1513 1511 1510 1508 1506 1505 1503 1501 1500 1498 1496 1494 1492 1491 1489 1487 1485 1483 1481 1479 1477 1477 1476 1474 1471 1470 1468 1466 1464 1462 1461 1459 1457 1456 1454 1452 1451 1449 1447 1446 1445 1443 1442 1440 1439 1437 1436
1542 1541 1540 1538 1537 1535 1534 1532 1531 1530 1528 1527 1526 1525 1523 1522 1521 1520 1518 1517 1516 1514 1513 1511 1510 1508 1506 1504 1503 1501 1500 1498 1496 1494 1492 1490 1488 1487 1485 1483 1481 1479 1477 1478 1478 1476 1472 1470 1468 1466 1464 1463 1461 1459 1458 1456 1454 1452 1451 1449 1447 1446 1444 1443 1441 1440 1438 1437 1436
1542 1541 1540 1538 1536 1535 1534 1532 1531 1529 1528 1527 1525 1524 1523 1521 1520 1519 1518 1516 1515 1514 1512 1511 1509 1507 1506 1504 1502 1501 1499 1497 1496 1494 1492 1490 1488 1486 1485 1483 1481 1479 1477 1477 1478 1476 1473 1470 1468 1466 1465 1463 1461 1459 1458 1456 1455 1453 1451 1449 1448 1446 1444 1442 1441 1439 1438 1437 1435
1542 1541 1539 1538 1536 1535 1533 1532 1531 1529 1527 1526 1525 1523 1522 1521 1520 1518 1517 1516 1514 1513 1512 1510 1508 1507 1505 1503 1502 1500 1498 1497 1495 1493 1492 1490 1488 1486 1485 1483 1481 1480 1478 1476 1478 1476 1473 1471 1468 1466 1465 1463 1461 1460 1458 1456 1455 1453 1451 1450 1448 1446 1444 1443 1441 1439 1438 1436 1435
1542 1541 1539 1537 1536 1535 1533 1531 1530 1528 1527 1526 1524 1523 1521 1520 1519 1518 1516 1515 1514 1512 1511 1510 1508 1506 1505 1503 1501 1500 1498 1496 1495 1493 1491 1490 1488 1486 1485 1483 1481 1480 1478 1477 1476 1476 1474 1471 1469 1467 1465 1463 1461 1460 1458 1456 1455 1453 1451 1450 1448 1446 1445 1443 1441 1439 1438 1436 1435
1541 1540 1539 1537 1536 1534 1533 1531 1530 1528 1526 1525 1524 1522 1521 1520 1518 1517 1516 1515 1513 1511 1510 1509 1507 1506 1504 1502 1501 1499 1497 1496 1494 1492 1491 1489 1488 1486 1485 1483 1481 1480 1478 1477 1476 1476 1475 1471 1469 1467 1465 1463 1461 1460 1458 1457 1455 1453 1452 1450 1448 1447 1445 1443 1441 1440 1438 1436 1435
1541 1540 1538 1537 1536 1534 1532 1531 1529 1528 1526 1525 1523 1522 1521 1519 1518 1516 1515 1514 1512 1511 1510 1508 1507 1506 1504 1502 1501 1499 1497 1496 1494 1492 1490 1489 1487 1486 1484 1483 1481 1480 1478 1476 1475 1475 1474 1472 1469 1467 1465 1464 1462 1460 1459 1457 1456 1454 1452 1451 1449 1447 1446 1444 1442 1440 1438 1436 1435
1541 1539 1538 1536 1535 1534 1532 1531 1529 1527 1526 1524 1523 1521 1520 1519 1517 1516 1515 1513 1512 1511 1510 1508 1506 1505 1504 1502 1501 1499 1497 1495 1494 1492 1490 1488 1487 1485 1484 1482 1481 1479 1478 1476 1475 1474 1474 1472 1469 1467 1466 1464 1462 1461 1459 1458 1456 1455 1453 1451 1450 1448 1446 1444 1442 1441 1439 1437 1435
1541 1539 1538 1536 1535 1533 1532 1530 1529 1527 1526 1524 1522 1521 1520 1518 1517 1516 1514 1513 1512 1510 1509 1507 1506 1504 1503 1501 1500 1498 1497 1495 1493 1491 1490 1488 1486 1485 1484 1482 1481 1479 1478 1476 1475 1474 1473 1473 1470 1467 1465 1464 1462 1461 1459 1458 1456 1455 1453 1452 1450 1448 1446 1445 1443 1441 1439 1437 1435
1540 1539 1537 1536 1534 1533 1531 1530 1528 1527 1525 1524 1522 1521 1519 1518 1516 1515 1514 1512 1511 1510 1508 1506 1505 1504 1502 1501 1499 1498 1496 1495 1493 1492 1490 1488 1486 1485 1483 1482 1481 1479 1477 1476 1475 1474 1473 1473 1470 1467 1465 1464 1462 1461 1459 1458 1457 1455 1454 1452 1451 1449 1447 1445 1443 1441 1439 1437 1436
1540 1538 1537 1535 1534 1532 1531 1530 1528 1526 1525 1523 1522 1520 1519 1517 1516 1514 1513 1511 1510 1509 1508 1506 1505 1503 1502 1501 1499 1497 1496 1495 1493 1491 1490 1488 1486 1485 1483 1482 1480 1479 1477 1476 1475 1473 1472 1472 1470 1467 1465 1464 1462 1461 1459 1458 1457 1455 1454 1452 1451 1449 1447 1446 1444 1442 1440 1438 1436
1539 1537 1536 1535 1533 1532 1531 1529 1527 1526 1525 1523 1521 1520 1518 1517 1515 1513 1512 1511 1510 1508 1507 1506 1505 1503 1502 1501 1499 1497 1496 1494 1493 1491 1490 1488 1486 1485 1483 1481 1480 1479 1477 1476 1474 1473 1471 1471 1470 1467 1465 1463 1461 1460 1459 1458 1456 1455 1454 1452 1451 1449 1447 1446 1444 1442 1440 1438 1436
1538 1537 1536 1534 1533 1531 1530 1529 1527 1526 1524 1522 1521 1519 1518 1516 1515 1513 1511 1510 1509 1507 1506 1505 1504 1502 1501 1500 1498 1497 1495 1494 1492 1491 1489 1488 1486 1484 1483 1481 1480 1478 1477 1475 1474 1472 1471 1470 1470 1468 1465 1463 1461 1460 1458 1458 1456 1456 1454 1452 1451 1449 1447 1446 1444 1442 1440 1438 1436
1538 1536 1535 1534 1532 1531 1530 1528 1527 1525 1524 1522 1521 1519 1517 1516 1514 1513 1511 1509 1508 1506 1505 1504 1503 1501 1500 1499 1497 1496 1495 1493 1492 1490 1489 1487 1486 1484 1482 1481 1479 1478 1476 1475 1473 1471 1470 1469 1469 1468 1466 1462 1460 1459 1458 1457 1456 1455 1454 1452 1451 1449 1447 1446 1444 1442 1440 1438 1436
1537 1536 1535 1533 1532 1531 1529 1528 1526 1525 1523 1522 1520 1519 1517 1516 1514 1512 1511 1509 1507 1506 1504 1503 1502 1501 1500 1498 1497 1496 1494 1493 1491 1490 1488 1487 1486 1484 1482 1481 1479 1477 1476 1474 1472 1471 1469 1468 1467 1467 1466 1462 1460 1458 1458 1457 1456 1455 1454 1452 1451 1449 1447 1446 1444 1442 1440 1438 1436
1537 1536 1534 1533 1532 1531 1529 1528 1526 1525 1523 1521 1520 1518 1517 1515 1513 1512 1510 1509 1507 1505 1504 1503 1501 1500 1499 1497 1496 1495 1494 1492 1491 1490 1488 1487 1486 1484 1482 1481 1479 1477 1475 1474 1472 1471 1469 1467 1466 1466 1466 1462 1460 1459 1458 1458 1457 1455 1454 1452 1451 1449 1447 1446 1444 1442 1440 1438 1436
1536 1535 1534 1533 1531 1530 1529 1528 1526 1525 1523 1521 1520 1518 1516 1515 1513 1512 1510 1509 1507 1506 1504 1502 1501 1500 1499 1497 1496 1494 1493 1492 1491 1489 1488 1486 1485 1484 1482 1481 1479 1477 1475 1474 1472 1471 1469 1468 1466 1466 1465 1462 1460 1459 1459 1458 1457 1455 1454 1452 1451 1449 1447 1446 1444 1442 1440 1438 1436
1536 1535 1534 1533 1531 1530 1529 1527 1526 1525 1523 1521 1520 1518 1516 1515 1514 1512 1511 1509 1507 1506 1504 1502 1501 1500 1498 1497 1496 1494 1493 1491 1490 1489 1487 1486 1485 1484 1482 1481 1478 1476 1475 1473 1472 1471 1469 1468 1466 1466 1465 1464 1461 1460 1459 1458 1456 1455 1454 1452 1451 1449 1447 1445 1443 1441 1440 1437 1436